This is the latest recevied weather packets stored in our database for station/object WA7SB-7. If no packets are shown the sender has not sent any weather packets the latest 10 day(s).
| Time | Temp. | Humidity | Pressure | Rain* | Wind** | Luminosity | Snow |
|---|---|---|---|---|---|---|---|
| 1788555562 | 17.78° C | 82% | 1012.5 hPa | 0 mm | - | - | - |
| 1788555329 | 17.78° C | 82% | 1012.5 hPa | 0 mm | - | - | - |
| 1788555271 | 17.78° C | 79% | 1012.4 hPa | 0 mm | - | - | - |
| 1788555017 | 18.33° C | 78% | 1012.4 hPa | 0 mm | - | - | - |
| 1788554960 | 18.33° C | 80% | 1012.4 hPa | 0 mm | - | - | - |
| 1788554726 | 18.33° C | 82% | 1012.3 hPa | 0 mm | - | - | - |
| 1788554669 | 18.33° C | 78% | 1012.4 hPa | 0 mm | - | - | - |
| 1788554415 | 18.33° C | 85% | 1012.3 hPa | 0 mm | - | - | - |
| 1788554357 | 18.33° C | 86% | 1012.3 hPa | 0 mm | - | - | - |
| 1788554122 | 18.33° C | 84% | 1012.4 hPa | 0 mm | - | - | - |
| 1788554062 | 18.33° C | 82% | 1012.5 hPa | 0 mm | - | - | - |
| 1788553825 | 17.78° C | 81% | 1012.3 hPa | 0 mm | - | - | - |
| 1788553766 | 17.78° C | 82% | 1012.3 hPa | 0 mm | - | - | - |
| 1788553526 | 17.78° C | 83% | 1012.4 hPa | 0 mm | - | - | - |
| 1788553452 | 17.78° C | 83% | 1012.4 hPa | 0 mm | - | - | - |
| 1788553215 | 17.78° C | 82% | 1012.3 hPa | 0 mm | - | - | - |
| 1788553161 | 17.78° C | 86% | 1012.3 hPa | 0 mm | - | - | - |
| 1788552922 | 17.78° C | 84% | 1012.2 hPa | 0 mm | - | - | - |
| 1788552869 | 17.78° C | 86% | 1012.3 hPa | 0 mm | - | - | - |
| 1788552630 | 17.22° C | 85% | 1012.2 hPa | 0 mm | - | - | - |
| 1788552555 | 17.22° C | 84% | 1012.3 hPa | 0 mm | - | - | - |
| 1788552320 | 16.67° C | 88% | 1012.2 hPa | 0 mm | - | - | - |
| 1788552259 | 16.67° C | 87% | 1012.2 hPa | 0 mm | - | - | - |
| 1788552033 | 16.67° C | 87% | 1012.1 hPa | 0 mm | - | - | - |
| 1788551954 | 16.67° C | 88% | 1012.1 hPa | 0 mm | - | - | - |
* Rain latest hour (hover to see other rain measurements)
** Current wind speed in m/s (hover to see current wind gust speed)